Precipitable_Water
0.80 0.81 0.77 0.79 0.78 0.82 0.83 0.85 0.89 0.87 0.88 0.92 0.96 1.01 1.03 1.05 1.09 1.09 1.09 1.11 1.13 1.14 1.19 1.27 1.31 1.30 1.27 1.28 1.28 1.29 1.30 1.27 1.22 1.25 1.25 1.25 1.22 1.23 1.22 1.24 1.33 1.37
0.79 0.80 0.80 0.80 0.83 0.88 0.91 0.92 0.91 0.90 0.91 0.97 1.02 1.05 1.08 1.08 1.10 1.10 1.10 1.11 1.13 1.13 1.17 1.20 1.26 1.25 1.26 1.21 1.21 1.20 1.21 1.25 1.23 1.28 1.23 1.23 1.28 1.30 1.28 1.27 1.28 1.30
0.83 0.79 0.82 0.83 0.86 0.88 0.88 0.89 0.88 0.90 0.95 0.98 1.02 1.04 1.06 1.09 1.07 1.09 1.10 1.11 1.11 1.14 1.16 1.20 1.22 1.24 1.22 1.21 1.21 1.22 1.20 1.22 1.24 1.28 1.31 1.29 1.25 1.24 1.23 1.24 1.26 1.29
0.86 0.86 0.84 0.85 0.86 0.89 0.92 0.88 0.89 0.94 0.97 0.99 1.01 1.02 1.03 1.04 1.06 1.07 1.09 1.10 1.12 1.14 1.18 1.21 1.21 1.23 1.24 1.27 1.28 1.25 1.22 1.22 1.25 1.27 1.24 1.27 1.29 1.28 1.29 1.31 1.28 1.28
0.88 0.88 0.90 0.89 0.91 0.91 0.89 0.88 0.90 0.94 0.95 0.99 1.03 1.05 1.02 1.03 1.04 1.04 1.06 1.08 1.10 1.13 1.17 1.14 1.16 1.17 1.17 1.18 1.20 1.18 1.20 1.20 1.23 1.24 1.21 1.19 1.25 1.27 1.28 1.28 1.29 1.29
0.86 0.86 0.88 0.88 0.91 0.90 0.90 0.90 0.90 0.93 0.95 0.97 1.01 1.03 1.04 1.06 1.05 1.04 1.04 1.05 1.09 1.11 1.10 1.10 1.11 1.12 1.14 1.14 1.15 1.16 1.18 1.19 1.20 1.21 1.21 1.22 1.23 1.25 1.25 1.22 1.19 1.19
0.89 0.89 0.91 0.94 0.93 0.94 0.93 0.92 0.94 0.95 0.97 0.99 0.98 0.96 1.01 1.03 1.04 1.05 1.06 1.07 1.07 1.09 1.07 1.08 1.07 1.07 1.11 1.15 1.17 1.15 1.16 1.18 1.18 1.20 1.19 1.19 1.20 1.21 1.22 1.19 1.19 1.18
0.93 0.92 0.92 0.94 0.91 0.91 0.91 0.92 0.95 0.96 1.03 1.04 0.98 0.98 0.97 0.98 1.01 1.06 1.08 1.09 1.07 1.07 1.06 1.05 1.05 1.05 1.08 1.11 1.09 1.12 1.11 1.12 1.12 1.12 1.13 1.14 1.17 1.17 1.15 1.13 1.11 1.10
0.88 0.88 0.89 0.88 0.88 0.90 0.90 0.94 0.98 0.96 0.98 0.98 1.01 0.99 0.98 0.96 0.97 0.99 1.04 1.10 1.09 1.09 1.08 1.05 1.05 1.05 1.08 1.08 1.08 1.10 1.10 1.08 1.08 1.09 1.10 1.09 1.10 1.11 1.07 1.07 1.04 1.05
0.85 0.87 0.86 0.87 0.90 0.93 0.92 0.93 0.95 0.97 1.00 0.97 0.97 0.95 0.91 0.94 0.95 0.93 0.95 1.03 1.11 1.11 1.10 1.10 1.09 1.11 1.13 1.09 1.08 1.12 1.11 1.08 1.10 1.10 1.09 1.06 1.05 1.06 1.06 1.04 1.03 1.03
0.84 0.87 0.88 0.91 0.91 0.89 0.89 0.92 0.92 0.92 0.93 0.89 0.88 0.97 1.02 1.00 0.97 0.95 0.94 1.05 1.13 1.14 1.12 1.12 1.15 1.12 1.06 1.05 1.08 1.12 1.12 1.07 1.10 1.10 1.07 1.06 1.06 1.08 1.07 1.06 1.05 1.05
0.85 0.86 0.88 0.89 0.88 0.87 0.86 0.88 0.90 0.90 0.98 1.01 0.98 0.96 0.96 0.92 0.91 0.94 0.93 0.98 1.10 1.18 1.19 1.14 1.18 1.18 1.15 1.13 1.10 1.09 1.07 1.07 1.09 1.08 1.08 1.07 1.06 1.06 1.05 1.07 1.06 1.04
0.83 0.87 0.89 0.88 0.90 0.91 0.92 0.94 0.97 1.01 1.02 1.00 0.99 0.97 0.96 0.95 0.98 0.99 0.99 1.00 1.07 1.14 1.14 1.14 1.16 1.16 1.16 1.18 1.19 1.17 1.12 1.10 1.10 1.10 1.09 1.07 1.03 1.02 1.05 1.07 1.06 1.01
0.80 0.86 0.88 0.88 0.88 0.90 0.93 0.97 1.02 1.05 1.06 1.06 1.03 0.98 0.95 0.95 0.95 0.98 1.02 1.04 1.05 1.04 1.06 1.10 1.15 1.18 1.19 1.18 1.17 1.15 1.14 1.14 1.12 1.04 1.01 1.00 0.99 1.01 1.03 1.04 1.03 0.98
0.83 0.87 0.88 0.88 0.89 0.93 0.97 1.01 1.06 1.07 1.07 1.04 1.00 0.95 0.94 0.93 0.96 1.01 1.05 1.03 1.02 1.03 1.06 1.10 1.14 1.12 1.18 1.20 1.14 1.15 1.13 1.01 0.95 0.91 0.93 0.94 0.95 0.96 1.01 1.05 1.01 0.97
0.88 0.89 0.88 0.90 0.90 0.95 0.99 1.04 1.06 1.07 1.04 1.00 0.96 0.94 0.93 0.96 1.02 1.03 1.00 0.99 0.98 1.01 1.06 1.11 1.16 1.22 1.17 1.17 1.20 1.11 1.01 0.95 0.90 0.89 0.93 0.94 0.93 0.94 0.99 1.03 0.98 0.96
0.90 0.91 0.93 0.92 0.95 0.97 1.01 1.03 1.04 1.05 1.03 0.99 0.96 0.95 0.95 0.97 0.99 0.98 0.97 0.98 1.00 1.03 1.06 1.09 1.10 1.15 1.15 1.13 1.05 0.99 0.96 0.91 0.87 0.88 0.91 0.93 0.95 0.95 0.97 1.00 0.98 0.97
0.90 0.92 0.92 0.93 0.96 0.99 1.00 1.02 1.03 1.02 1.01 0.99 0.97 0.97 0.98 0.98 0.97 0.98 0.98 1.00 1.03 1.06 1.07 1.08 1.08 1.10 1.09 1.06 1.02 0.99 0.97 0.92 0.88 0.86 0.86 0.89 0.94 0.94 0.96 0.99 0.96 0.95
0.91 0.91 0.93 0.94 0.98 1.01 1.03 1.02 1.01 1.00 1.00 0.99 0.97 0.98 0.99 0.99 0.99 0.99 0.98 0.98 0.98 1.00 1.00 1.02 1.04 1.10 1.09 1.05 1.01 1.00 0.99 0.94 0.91 0.88 0.86 0.88 0.96 0.99 0.97 0.95 0.94 0.94
0.92 0.94 0.95 0.97 1.01 1.03 1.04 1.02 0.99 0.98 0.99 1.00 0.98 0.99 1.00 1.00 0.99 0.95 0.92 0.91 0.94 0.95 0.96 0.98 1.00 1.06 1.06 1.05 1.03 1.02 1.01 0.98 0.95 0.93 0.92 0.96 1.01 1.12 1.11 1.01 0.93 0.94
0.93 0.96 0.98 1.01 1.04 1.06 1.06 1.05 1.02 0.98 0.97 0.99 0.99 0.98 0.98 0.99 0.98 0.94 0.92 0.92 0.92 0.94 0.95 0.98 1.02 1.07 1.09 1.09 1.06 1.04 1.03 1.02 0.99 0.99 0.98 0.98 1.00 1.03 1.11 1.02 0.94 0.96
0.95 0.99 1.02 1.05 1.08 1.08 1.07 1.07 1.06 1.00 0.97 1.01 0.99 0.99 1.01 1.02 1.02 0.99 0.94 0.94 0.96 0.97 1.00 1.02 1.10 1.14 1.13 1.10 1.06 1.05 1.05 1.04 1.04 1.05 1.04 1.02 1.02 1.07 1.06 1.01 0.99 0.98
1.02 1.04 1.06 1.09 1.11 1.10 1.09 1.09 1.05 1.01 0.99 1.02 0.98 0.98 1.00 1.00 0.98 0.98 0.98 0.97 1.00 1.02 1.00 1.10 1.14 1.15 1.11 1.08 1.06 1.06 1.04 1.05 1.07 1.09 1.09 1.06 1.03 1.07 1.05 1.04 1.02 1.00
1.10 1.11 1.10 1.11 1.11 1.10 1.10 1.09 1.07 1.05 1.01 1.01 0.97 0.96 0.97 0.99 1.01 1.00 1.03 1.05 1.02 1.04 1.09 1.06 1.05 1.14 1.19 1.15 1.10 1.06 1.04 1.04 1.06 1.03 0.98 1.03 1.07 1.02 1.02 1.06 1.06 1.01
1.16 1.16 1.14 1.13 1.12 1.11 1.10 1.06 1.05 1.03 1.02 1.02 1.03 1.04 1.03 1.02 1.03 1.02 1.01 1.02 1.05 1.09 1.05 1.01 1.03 1.12 1.25 1.21 1.13 1.05 1.04 1.06 1.06 1.06 1.00 1.02 1.02 0.99 0.97 0.93 0.94 0.99
1.20 1.21 1.20 1.17 1.13 1.11 1.10 1.09 1.09 1.06 1.04 1.04 1.05 1.03 1.00 1.00 1.00 0.97 0.96 1.00 1.05 1.00 1.05 1.08 1.08 1.11 1.24 1.21 1.11 1.05 1.04 1.03 1.04 1.00 0.96 0.97 0.99 0.97 0.92 0.91 0.93 0.98
Wind_Speed
18 19 19 19 18 18 19 19 20 21 21 22 22 23 23 23 23 24 24 24 24 24 25 25 26 26 26 25 25 25 25 25 25 25 25 26 26 26 27 27 27 28
19 19 19 19 19 19 19 20 20 21 22 22 23 23 23 23 23 24 24 24 25 25 25 25 25 26 26 26 25 25 25 25 25 25 25 25 26 26 26 27 27 28
19 20 20 20 20 20 20 21 21 22 22 23 23 23 23 23 24 24 25 25 25 25 25 25 26 26 26 26 26 25 25 25 25 25 24 25 25 25 26 26 27 27
19 20 20 21 21 21 21 21 22 22 22 23 23 23 23 24 24 25 25 25 25 25 25 26 26 27 27 27 26 26 25 25 25 24 24 25 25 25 26 26 26 27
20 21 21 22 22 22 22 22 22 22 23 23 23 24 24 24 25 25 25 26 26 26 26 26 27 27 27 27 26 25 25 25 25 25 25 25 25 25 25 25 26 27
21 22 22 22 22 22 22 22 22 23 23 23 24 24 25 25 25 26 26 26 27 27 27 27 27 27 27 27 26 25 25 25 25 25 25 25 25 24 25 25 26 26
22 22 22 23 23 23 23 23 23 23 23 24 24 25 25 26 26 26 27 27 27 27 27 28 28 28 27 27 26 25 25 25 25 25 25 25 25 25 25 25 26 26
23 23 23 23 23 23 23 23 23 24 24 24 25 25 26 26 27 27 27 27 28 28 28 28 28 28 27 27 26 26 26 25 25 25 25 25 25 25 25 25 26 27
23 23 23 23 23 23 23 24 24 25 25 25 25 25 26 27 27 28 28 28 28 28 28 28 28 28 27 27 27 26 26 26 25 25 25 25 25 25 25 25 26 27
24 23 23 23 23 24 24 24 25 25 25 25 26 26 27 27 27 28 28 28 28 29 29 29 28 28 28 28 28 27 27 26 26 25 25 25 25 24 25 25 26 27
24 24 23 23 24 24 25 25 26 26 26 26 27 27 27 27 28 28 28 29 29 29 29 29 28 28 28 28 28 27 27 26 26 25 25 25 25 24 25 26 26 28
24 23 23 24 24 24 25 25 26 26 27 27 27 28 28 28 28 28 28 29 30 30 30 30 29 29 29 29 28 27 27 26 26 25 25 25 24 24 25 26 26 28
24 23 23 24 24 25 25 25 26 26 27 27 28 28 28 28 29 29 29 29 30 30 30 30 29 29 29 29 28 27 27 26 25 25 25 24 24 24 25 25 26 27
23 23 24 24 25 25 25 26 26 26 27 27 28 28 28 29 29 29 29 29 30 30 30 29 29 28 28 28 27 26 26 25 25 25 25 24 24 24 24 25 26 27
23 24 24 24 25 25 25 26 26 26 27 27 28 28 28 29 29 29 29 29 29 29 29 29 28 27 27 26 26 26 25 25 25 25 24 24 24 24 24 24 25 26
24 24 24 25 25 25 25 26 26 26 27 27 28 28 28 29 29 29 29 29 29 29 28 28 27 27 26 26 26 25 25 25 25 24 24 23 24 24 24 24 25 26
24 24 24 25 25 25 25 26 26 26 27 27 28 28 28 28 28 28 28 29 29 29 28 27 27 26 26 25 24 24 24 24 23 23 23 23 23 24 24 24 25 26
24 24 24 25 25 25 25 26 26 26 26 27 27 27 27 27 28 28 28 28 28 28 28 27 27 26 24 24 23 23 23 23 22 23 23 23 23 23 24 24 25 26
24 24 24 25 25 25 26 26 26 26 26 27 27 27 27 27 28 28 28 28 28 28 27 27 26 24 23 23 23 22 22 22 22 22 23 23 23 23 24 24 25 26
24 24 24 25 25 25 26 26 26 26 26 26 27 27 27 27 28 28 28 28 27 27 26 26 25 23 22 22 22 22 22 22 22 22 22 23 23 23 24 25 25 26
24 24 25 25 25 26 26 26 26 26 26 26 27 27 27 28 28 28 27 27 26 26 26 25 23 22 21 21 22 22 22 21 22 22 22 22 23 23 24 25 25 25
24 25 25 25 25 26 26 26 26 25 26 26 27 27 27 28 28 27 27 26 26 25 25 24 22 21 20 21 21 21 21 21 21 21 21 22 23 23 24 25 25 25
25 25 25 26 26 26 26 26 26 26 26 26 26 27 27 27 27 27 26 26 25 25 24 23 22 21 20 20 21 20 20 21 20 21 21 22 22 23 23 24 24 24
25 25 26 26 26 26 26 26 26 26 26 26 26 27 27 27 26 26 25 25 25 25 24 23 23 22 20 19 19 20 20 20 20 20 21 22 22 23 23 23 23 24
26 26 27 27 27 27 27 26 26 26 26 26 26 26 27 26 26 25 25 25 25 25 24 23 22 21 19 19 19 20 20 20 20 20 21 21 22 23 23 23 23 23
27 27 27 28 28 27 27 27 26 26 26 26 26 26 27 26 26 25 25 25 25 24 24 23 22 20 19 19 20 20 20 20 20 20 21 21 22 22 23 23 22 22
Wind_Direction
318 318 318 317 315 314 314 313 313 312 313 313 314 314 315 316 316 317 317 317 317 317 316 315 314 313 312 311 309 307 304 302 299 295 292 289 288 286 285 283 282 279
316 317 317 317 315 314 313 313 312 312 312 313 313 314 314 315 316 316 317 317 316 316 316 315 314 313 312 311 309 307 304 302 299 296 293 290 289 287 286 285 284 282
314 315 315 314 314 313 312 312 312 312 312 313 313 314 314 314 315 315 316 316 316 315 315 315 314 313 312 311 309 307 304 302 300 297 294 292 290 289 288 287 286 284
312 313 313 313 312 312 312 312 312 311 312 313 313 313 313 313 314 314 315 315 315 315 314 315 314 313 313 312 310 307 304 301 299 297 295 293 293 292 290 289 288 286
310 311 311 311 311 311 311 311 311 311 312 312 313 313 312 312 313 313 314 314 314 314 314 314 313 313 312 312 310 307 304 302 299 298 296 294 294 293 292 291 291 289
310 310 310 310 310 311 310 310 310 311 311 312 312 312 312 312 312 313 313 313 313 313 313 313 312 312 312 311 309 307 304 302 300 299 297 295 294 293 293 293 293 292
308 308 308 308 309 309 309 309 309 310 310 311 311 311 311 312 312 313 313 313 313 312 312 312 311 311 311 310 308 306 304 302 300 299 297 296 295 294 294 294 294 293
307 306 306 307 308 308 308 308 309 309 310 310 309 310 311 311 312 312 312 312 312 312 312 311 310 310 309 309 307 305 304 302 300 299 298 297 296 295 295 295 295 295
306 305 305 306 307 307 308 308 310 310 310 309 309 310 311 311 312 312 312 312 311 311 311 310 309 308 308 308 307 305 303 302 301 300 298 297 296 295 295 296 297 297
305 304 304 305 306 307 308 309 310 311 310 310 310 310 310 311 311 312 313 312 311 310 310 309 308 307 307 307 306 304 302 301 300 299 298 298 297 295 295 297 298 298
303 303 304 304 305 307 308 309 311 311 311 310 310 310 311 311 312 312 313 312 311 310 309 309 308 307 306 306 305 303 301 300 299 298 298 298 297 296 296 298 298 300
302 303 303 304 305 307 308 309 310 311 310 310 310 311 312 312 312 313 312 312 310 310 309 308 307 306 306 305 304 302 301 299 298 298 297 297 297 296 296 298 299 302
302 302 303 304 305 306 308 309 310 310 310 310 311 312 312 312 313 312 312 311 310 310 309 308 307 306 305 305 304 302 299 298 297 297 297 297 297 296 296 298 301 303
301 302 303 304 305 306 308 309 309 309 309 310 310 311 312 312 312 312 311 311 311 310 310 309 308 306 306 305 304 302 299 297 297 297 297 296 297 296 296 298 302 305
301 302 303 304 304 306 307 308 308 308 309 310 311 312 312 312 312 312 311 311 311 310 310 309 308 307 307 306 305 302 300 298 298 297 297 296 297 297 297 298 302 306
300 302 303 304 304 305 307 307 308 309 309 310 311 312 312 312 312 312 312 311 311 311 310 309 309 308 308 306 305 303 301 299 299 298 297 297 297 297 297 298 302 306
300 302 303 303 304 305 306 307 308 309 309 310 311 312 313 313 313 313 312 312 312 311 310 309 309 309 308 306 305 304 303 302 300 299 298 297 297 297 297 299 302 305
299 301 302 303 304 304 306 307 308 309 309 310 311 312 313 313 313 313 313 312 312 311 310 309 309 309 307 306 306 306 305 304 301 300 299 298 297 298 298 300 303 306
299 300 301 302 303 304 306 307 308 309 309 310 311 313 313 313 313 313 313 312 312 311 310 309 309 308 306 305 306 307 307 305 303 301 300 299 299 299 299 301 303 306
298 299 300 301 302 304 306 306 307 308 309 310 311 312 313 313 313 313 313 313 312 311 311 310 309 308 306 305 307 308 309 307 305 302 300 300 301 300 300 302 304 305
296 298 299 301 302 303 305 306 306 307 308 310 311 311 312 313 313 313 312 312 312 312 312 311 310 308 306 306 306 308 310 309 307 304 302 302 302 301 301 303 304 305
294 296 298 300 302 303 304 305 305 306 307 309 310 311 311 312 312 312 312 312 312 312 312 311 309 307 306 306 306 308 311 311 309 307 306 305 305 304 304 305 305 306
293 295 298 299 301 302 302 303 304 305 306 307 309 310 311 311 312 311 312 312 311 312 312 311 309 308 305 305 307 309 311 311 310 310 310 309 309 309 309 308 307 308
291 294 297 298 300 301 301 302 303 304 305 307 308 309 309 310 310 311 312 311 311 312 312 310 309 308 305 305 307 309 310 310 310 310 312 312 313 314 314 312 311 310
291 293 295 297 298 299 300 301 302 303 304 305 306 307 308 308 309 311 312 311 311 311 311 309 308 307 304 305 309 309 308 309 309 309 311 313 315 316 316 316 314 313
289 291 293 295 296 298 299 300 301 302 302 303 304 306 307 307 309 310 311 310 310 310 309 307 306 304 302 304 307 308 307 308 308 308 311 313 315 317 318 318 317 317